Location: Courcelles
(49.2596°N, 1.7419°E)
Time: 20:55:17
(UTC+00:00)

Cosmos 1975 Rocket - Pass Details

Date: 17 November 2025
Orbit: 598 x 626 km, 82.5° (Epoch: 10 December)

Event Time Altitude Azimuth Distance (km) Brightness Sun altitude
Rises 17:26:02 0° 347° (NNW) 2,871 6.5 -12.5°
Reaches altitude 10° 17:28:16 10° 345° (NNW) 1,966 5.6 -12.8°
Maximum altitude 17:32:34 66° 264° (W) 670 3.5 -13.5°
Drops below altitude 10° 17:36:53 10° 182° (S) 1,967 5.8 -14.2°
Sets 17:39:07 0° 180° (S) 2,872 6.6 -14.6°
